Total_Precipitation_Accumulation
1.63 1.82 1.42 0.87 0.66 0.57 0.51 0.41 0.34 0.30 0.34 0.43 0.39 0.34 0.40 0.43 0.49 0.48 0.49 0.53 0.57 0.70 0.80 1.00 1.28 1.62 1.90 2.06 2.35 2.50 2.70 2.87 2.92 2.86 2.57 2.25 2.02 1.87 1.72 1.50 1.33 1.26 1.21 1.18
1.55 1.37 0.80 0.57 0.62 0.66 0.65 0.57 0.41 0.30 0.27 0.39 0.40 0.36 0.37 0.40 0.46 0.47 0.48 0.47 0.50 0.55 0.62 0.79 1.11 1.31 1.54 1.77 1.97 2.26 2.31 2.54 2.59 2.52 2.51 2.37 2.27 2.15 2.02 1.83 1.56 1.41 1.37 1.29
1.16 0.83 0.64 0.70 0.81 0.80 0.68 0.57 0.47 0.41 0.36 0.43 0.49 0.46 0.37 0.36 0.37 0.36 0.37 0.36 0.42 0.46 0.50 0.64 0.88 1.10 1.23 1.46 1.76 1.93 2.03 2.20 2.42 2.48 2.61 2.71 2.66 2.38 2.11 1.92 1.80 1.65 1.56 1.48
1.01 0.71 0.75 0.81 0.77 0.73 0.68 0.41 0.45 0.50 0.62 0.60 0.47 0.59 0.41 0.32 0.31 0.32 0.34 0.30 0.34 0.41 0.45 0.52 0.62 0.80 0.95 1.11 1.46 1.81 2.00 2.11 2.27 2.55 2.55 2.47 2.34 2.13 1.88 1.87 1.92 1.89 1.77 1.66
0.99 0.74 0.82 0.85 0.59 0.58 0.61 0.42 0.49 0.58 0.69 0.66 0.42 0.47 0.39 0.25 0.28 0.30 0.33 0.31 0.37 0.48 0.52 0.51 0.53 0.65 0.79 0.93 1.19 1.49 1.78 2.05 2.24 2.33 2.37 2.40 2.23 2.05 2.01 1.94 1.91 1.83 1.73 1.67
0.72 0.72 0.88 0.75 0.52 0.56 0.67 0.68 0.74 0.78 0.98 0.94 0.39 0.38 0.37 0.27 0.30 0.32 0.32 0.32 0.39 0.47 0.53 0.51 0.51 0.60 0.74 0.81 0.97 1.23 1.49 1.64 1.88 2.09 2.16 2.19 2.16 2.15 2.10 1.91 1.83 1.84 1.82 1.75
0.98 0.84 0.83 0.83 0.84 0.86 0.98 1.33 1.73 1.64 1.37 0.73 0.26 0.29 0.29 0.25 0.32 0.35 0.35 0.37 0.39 0.41 0.43 0.44 0.48 0.55 0.68 0.79 0.88 1.00 1.15 1.26 1.43 1.64 1.77 1.83 1.93 2.03 1.96 1.85 1.71 1.69 1.67 1.62
1.07 1.07 0.81 0.93 1.00 1.03 0.96 1.14 1.37 1.12 0.68 0.36 0.22 0.24 0.23 0.24 0.34 0.38 0.37 0.36 0.35 0.40 0.42 0.41 0.40 0.46 0.57 0.66 0.76 0.84 0.92 1.01 1.17 1.32 1.44 1.57 1.68 1.85 1.84 1.80 1.65 1.53 1.49 1.49
0.82 0.87 0.64 0.76 0.77 0.76 0.87 0.85 0.75 0.94 0.61 0.35 0.23 0.16 0.15 0.17 0.23 0.31 0.32 0.30 0.30 0.38 0.41 0.39 0.38 0.40 0.49 0.55 0.61 0.71 0.83 0.89 0.98 1.12 1.26 1.38 1.45 1.53 1.59 1.65 1.66 1.53 1.45 1.44
0.75 0.90 0.70 0.78 0.95 0.83 0.72 0.68 0.86 1.20 0.95 0.51 0.21 0.12 0.18 0.19 0.20 0.28 0.31 0.34 0.36 0.41 0.40 0.37 0.39 0.43 0.48 0.49 0.52 0.61 0.76 0.80 0.83 0.91 1.02 1.12 1.23 1.37 1.45 1.47 1.46 1.42 1.39 1.39
0.76 1.02 0.88 0.94 1.06 0.76 0.65 0.81 0.95 0.96 0.72 0.62 0.39 0.25 0.23 0.24 0.22 0.25 0.30 0.33 0.37 0.41 0.41 0.41 0.45 0.52 0.55 0.50 0.52 0.58 0.67 0.77 0.83 0.85 0.90 0.94 0.96 1.04 1.20 1.31 1.32 1.32 1.30 1.29
0.76 1.06 0.91 0.76 0.61 0.51 0.51 0.51 0.70 1.03 0.75 0.53 0.47 0.35 0.24 0.24 0.22 0.23 0.28 0.31 0.34 0.36 0.38 0.43 0.50 0.53 0.54 0.56 0.58 0.62 0.65 0.72 0.81 0.84 0.85 0.89 0.90 0.91 0.99 1.09 1.19 1.25 1.32 1.26
0.79 1.13 1.06 0.91 0.77 0.70 0.64 0.46 0.52 0.83 1.05 0.79 0.63 0.40 0.25 0.22 0.23 0.23 0.26 0.30 0.33 0.36 0.36 0.37 0.44 0.50 0.52 0.55 0.64 0.68 0.71 0.72 0.73 0.76 0.76 0.77 0.77 0.78 0.84 0.90 1.00 1.07 1.16 1.17
0.95 1.09 0.95 0.83 0.70 0.66 0.60 0.45 0.53 1.02 1.21 0.72 0.47 0.37 0.26 0.24 0.26 0.24 0.27 0.32 0.35 0.35 0.34 0.35 0.40 0.44 0.48 0.53 0.58 0.58 0.65 0.67 0.69 0.68 0.72 0.73 0.70 0.70 0.76 0.85 0.89 0.94 0.99 1.06
0.95 1.13 0.77 0.55 0.42 0.46 0.46 0.36 0.44 0.74 0.74 0.76 0.46 0.34 0.33 0.31 0.28 0.25 0.27 0.27 0.27 0.28 0.30 0.34 0.38 0.41 0.44 0.43 0.42 0.45 0.51 0.57 0.60 0.62 0.68 0.72 0.74 0.77 0.87 0.91 0.87 0.87 0.90 0.96
0.71 0.95 0.79 0.58 0.35 0.34 0.37 0.29 0.34 0.43 0.45 0.51 0.40 0.36 0.26 0.25 0.23 0.23 0.25 0.23 0.21 0.23 0.24 0.26 0.31 0.37 0.40 0.38 0.37 0.38 0.41 0.45 0.47 0.49 0.54 0.61 0.68 0.78 0.87 0.94 0.91 0.88 0.86 0.91
0.60 0.75 0.85 0.57 0.28 0.40 0.44 0.32 0.35 0.38 0.37 0.43 0.46 0.38 0.24 0.23 0.22 0.22 0.23 0.20 0.18 0.18 0.18 0.19 0.22 0.28 0.30 0.30 0.32 0.35 0.36 0.39 0.42 0.41 0.43 0.50 0.63 0.73 0.79 0.84 0.89 0.90 0.90 1.00
0.42 0.62 0.89 0.66 0.45 0.53 0.30 0.20 0.24 0.30 0.33 0.35 0.33 0.26 0.19 0.20 0.21 0.21 0.21 0.19 0.16 0.15 0.15 0.15 0.18 0.21 0.21 0.23 0.24 0.26 0.28 0.34 0.42 0.45 0.47 0.52 0.58 0.68 0.79 0.83 0.88 0.94 0.96 1.05
0.26 0.57 0.96 0.80 0.58 0.32 0.15 0.12 0.17 0.28 0.33 0.22 0.20 0.17 0.13 0.14 0.16 0.16 0.17 0.16 0.15 0.15 0.15 0.14 0.16 0.17 0.16 0.18 0.21 0.21 0.22 0.28 0.37 0.43 0.48 0.48 0.54 0.64 0.75 0.85 0.92 0.96 1.01 1.06
0.28 0.52 1.02 0.90 0.71 0.37 0.17 0.07 0.09 0.24 0.43 0.18 0.13 0.12 0.12 0.13 0.20 0.18 0.15 0.16 0.13 0.14 0.18 0.18 0.17 0.16 0.16 0.18 0.20 0.23 0.25 0.29 0.37 0.41 0.45 0.47 0.50 0.59 0.69 0.80 0.89 0.93 0.95 0.96
0.39 0.68 0.90 0.76 0.68 0.31 0.14 0.06 0.09 0.37 0.52 0.21 0.14 0.13 0.14 0.16 0.18 0.15 0.12 0.11 0.12 0.14 0.18 0.22 0.25 0.25 0.26 0.28 0.29 0.31 0.32 0.35 0.38 0.42 0.47 0.49 0.52 0.58 0.66 0.72 0.76 0.77 0.76 0.74
0.28 0.41 0.44 0.48 0.65 0.38 0.17 0.15 0.26 0.35 0.23 0.16 0.15 0.16 0.19 0.21 0.18 0.15 0.13 0.11 0.12 0.15 0.18 0.23 0.28 0.30 0.32 0.33 0.35 0.36 0.39 0.40 0.41 0.43 0.47 0.52 0.54 0.53 0.54 0.57 0.61 0.59 0.59 0.58
0.25 0.33 0.35 0.35 0.39 0.28 0.22 0.26 0.28 0.26 0.21 0.17 0.16 0.15 0.18 0.24 0.24 0.21 0.18 0.15 0.13 0.15 0.17 0.20 0.24 0.25 0.25 0.30 0.36 0.40 0.41 0.41 0.39 0.42 0.43 0.44 0.46 0.45 0.46 0.46 0.47 0.49 0.51 0.52
0.24 0.25 0.30 0.31 0.28 0.23 0.22 0.22 0.20 0.19 0.18 0.16 0.16 0.16 0.17 0.19 0.22 0.22 0.21 0.19 0.19 0.17 0.15 0.16 0.17 0.19 0.20 0.22 0.26 0.31 0.33 0.33 0.31 0.34 0.33 0.33 0.33 0.36 0.37 0.38 0.40 0.43 0.45 0.45
0.24 0.25 0.29 0.30 0.24 0.18 0.17 0.15 0.14 0.13 0.11 0.11 0.13 0.14 0.15 0.16 0.19 0.21 0.20 0.18 0.19 0.18 0.16 0.14 0.14 0.14 0.15 0.16 0.18 0.21 0.24 0.24 0.24 0.25 0.24 0.24 0.25 0.31 0.35 0.36 0.37 0.40 0.43 0.48
0.18 0.22 0.31 0.32 0.21 0.20 0.19 0.14 0.12 0.12 0.11 0.11 0.12 0.14 0.13 0.14 0.17 0.18 0.17 0.16 0.16 0.17 0.17 0.14 0.13 0.13 0.13 0.14 0.14 0.15 0.18 0.21 0.23 0.23 0.22 0.23 0.22 0.26 0.34 0.38 0.38 0.42 0.45 0.51